Terminal Aerodrome Forecast
Issued by NWS Wakefield, VA

Home | Current Version | Previous Version | Text Only | Print | Product List | Glossary On
Versions: 1 2 3 4 5 6 7 8 9 10 11 12 13 14
000
FTUS41 KAKQ 020522
TAFSBY
TAF
KSBY 020522Z 0206/0306 21003KT 6SM -SHRA BR BKN060 BKN150
     FM021200 VRB03KT 4SM -SHRA BR SCT015 OVC035
     FM021800 21005KT P6SM BKN040=

USA.gov is the U.S. government's official web portal to all federal, state and local government web resources and services.